Location: Newark
(1.4000°N, 32.2500°E)
Time: 00:58:14
(UTC+00:00)

OTV 5 (USA 277) - Visible Passes

Search period start: 17 October 2019 00:00
Search period end: 27 October 2019 00:00
Orbit: 310 x 324 km, 54.5° (Epoch: 08 October)

Date Brightness Start Highest point End Pass type
(mag) Time Alt. Az. Time Alt. Az. Time Alt. Az.
20 Oct ? 16:37:41 10° S 16:38:42 16° SSE 16:38:42 16° SSE visible
21 Oct ? 16:51:31 10° SW 16:53:52 58° WSW 16:53:52 58° WSW visible
22 Oct ? 17:07:17 10° W 17:08:41 13° WNW 17:09:04 13° NW visible
24 Oct ? 03:06:45 10° NNE 03:08:40 17° ENE 03:10:35 10° ESE visible
24 Oct ? 16:01:11 10° WSW 16:03:33 27° WNW 16:05:56 10° N visible
